UAL1728 KEWR-KBNA

Flight info

Callsign UAL1728
Flight time 1h 43m
Altitude 32000
Route PARKE J6 HVQ Q68 YOCKY CUTRR PASLY5
Aircraft B739/M-SDE2E3FGHIRWXY/LB1

Departure

Time 2026-04-24 19:23
Airport Newark Liberty International Airport (KEWR)

Arrival

Time 2026-04-24 21:06
Airport Nashville International Airport (KBNA)
Time Latitude Longitude Altitude Speed Heading
2026-04-24 19:03 40.69573 -74.17388 21 ft 0 kts 132°
2026-04-24 19:12 40.69589 -74.17412 21 ft 4 kts 132°
2026-04-24 19:13 40.69598 -74.17424 21 ft 4 kts 135°
2026-04-24 19:13 40.69623 -74.17442 25 ft 4 kts 208°
2026-04-24 19:13 40.69642 -74.17425 22 ft 4 kts 191°
2026-04-24 19:13 40.69658 -74.17428 22 ft 4 kts 111°
2026-04-24 19:14 40.69654 -74.17450 23 ft 4 kts 41°
2026-04-24 19:14 40.69640 -74.17466 24 ft 0 kts 41°
2026-04-24 19:16 40.69648 -74.17457 24 ft 2 kts 41°
2026-04-24 19:16 40.69661 -74.17442 23 ft 5 kts 43°
2026-04-24 19:17 40.69712 -74.17388 21 ft 11 kts 39°
2026-04-24 19:17 40.69769 -74.17323 22 ft 11 kts 41°
2026-04-24 19:17 40.69768 -74.17240 23 ft 10 kts 136°
2026-04-24 19:17 40.69712 -74.17180 21 ft 10 kts 144°
2026-04-24 19:18 40.69642 -74.17129 22 ft 13 kts 155°
2026-04-24 19:18 40.69579 -74.17099 21 ft 16 kts 162°
2026-04-24 19:18 40.69468 -74.17072 21 ft 16 kts 176°
2026-04-24 19:18 40.69359 -74.17080 21 ft 15 kts 195°
2026-04-24 19:19 40.69260 -74.17131 21 ft 15 kts 204°
2026-04-24 19:19 40.69169 -74.17187 22 ft 14 kts 205°
2026-04-24 19:19 40.69082 -74.17243 22 ft 14 kts 206°
2026-04-24 19:19 40.68991 -74.17303 21 ft 15 kts 206°
2026-04-24 19:20 40.68897 -74.17363 21 ft 15 kts 206°
2026-04-24 19:20 40.68805 -74.17421 21 ft 15 kts 205°
2026-04-24 19:20 40.68697 -74.17487 21 ft 18 kts 204°
2026-04-24 19:20 40.68586 -74.17518 22 ft 17 kts 137°
2026-04-24 19:21 40.68522 -74.17462 22 ft 5 kts 173°
2026-04-24 19:21 40.68482 -74.17497 22 ft 12 kts 218°
2026-04-24 19:21 40.68395 -74.17562 22 ft 17 kts 208°
2026-04-24 19:21 40.68270 -74.17638 21 ft 21 kts 201°
2026-04-24 19:22 40.68186 -74.17558 20 ft 9 kts 88°
2026-04-24 19:22 40.68218 -74.17515 21 ft 9 kts 29°
2026-04-24 19:22 40.68348 -74.17430 23 ft 45 kts 27°
2026-04-24 19:22 40.68898 -74.17081 22 ft 128 kts 27°
2026-04-24 19:23 40.69905 -74.16439 58 ft 188 kts 30°
2026-04-24 19:23 40.71097 -74.15679 874 ft 191 kts 27°
2026-04-24 19:23 40.72281 -74.14773 1728 ft 203 kts 38°
2026-04-24 19:23 40.73359 -74.13426 2239 ft 226 kts 44°
2026-04-24 19:24 40.74493 -74.11889 2691 ft 239 kts 44°
2026-04-24 19:24 40.75747 -74.10345 3067 ft 256 kts 37°
2026-04-24 19:24 40.77318 -74.09252 3686 ft 261 kts 12°
2026-04-24 19:24 40.79136 -74.09237 4533 ft 261 kts 343°
2026-04-24 19:25 40.80633 -74.10448 5457 ft 252 kts 305°
2026-04-24 19:25 40.81234 -74.12516 6619 ft 242 kts 285°
2026-04-24 19:25 40.81580 -74.14697 7462 ft 243 kts 287°
2026-04-24 19:25 40.81801 -74.16927 8258 ft 251 kts 271°
2026-04-24 19:26 40.81489 -74.19199 9141 ft 255 kts 266°
2026-04-24 19:26 40.81194 -74.21492 9928 ft 253 kts 269°
2026-04-24 19:26 40.80859 -74.23820 10416 ft 268 kts 266°
2026-04-24 19:26 40.80454 -74.26338 10588 ft 292 kts 266°
2026-04-24 19:27 40.80030 -74.29091 10786 ft 312 kts 266°
2026-04-24 19:27 40.79601 -74.31901 11285 ft 320 kts 266°
2026-04-24 19:27 40.79161 -74.34799 11949 ft 323 kts 266°
2026-04-24 19:27 40.78719 -74.37769 12555 ft 329 kts 265°
2026-04-24 19:28 40.78262 -74.40711 13173 ft 333 kts 265°
2026-04-24 19:28 40.77809 -74.43762 13886 ft 335 kts 265°
2026-04-24 19:28 40.77371 -74.46749 14471 ft 338 kts 265°
2026-04-24 19:28 40.76926 -74.49807 15083 ft 341 kts 265°
2026-04-24 19:29 40.76015 -74.56025 16314 ft 346 kts 265°
2026-04-24 19:29 40.75562 -74.59110 16904 ft 348 kts 265°
2026-04-24 19:29 40.75097 -74.62258 17506 ft 351 kts 265°
2026-04-24 19:30 40.74624 -74.65477 18036 ft 355 kts 265°
2026-04-24 19:30 40.74148 -74.68691 18548 ft 358 kts 264°
2026-04-24 19:30 40.73666 -74.71924 19050 ft 361 kts 265°
2026-04-24 19:30 40.73181 -74.75185 19536 ft 364 kts 265°
2026-04-24 19:31 40.72689 -74.78476 20028 ft 367 kts 265°
2026-04-24 19:31 40.72193 -74.81796 20497 ft 371 kts 265°
2026-04-24 19:31 40.71691 -74.85147 20987 ft 374 kts 265°
2026-04-24 19:31 40.71185 -74.88514 21468 ft 376 kts 265°
2026-04-24 19:32 40.70674 -74.91913 21932 ft 380 kts 265°
2026-04-24 19:32 40.70158 -74.95340 22404 ft 383 kts 265°
2026-04-24 19:32 40.69637 -74.98792 22863 ft 386 kts 265°
2026-04-24 19:32 40.69110 -75.02277 23323 ft 389 kts 265°
2026-04-24 19:33 40.68522 -75.05776 23707 ft 396 kts 259°
2026-04-24 19:33 40.67559 -75.09210 24086 ft 404 kts 251°
2026-04-24 19:33 40.66184 -75.12480 24484 ft 411 kts 246°
2026-04-24 19:33 40.64687 -75.15711 24841 ft 415 kts 245°
2026-04-24 19:34 40.63170 -75.18962 25187 ft 418 kts 245°
2026-04-24 19:34 40.61649 -75.22237 25546 ft 420 kts 246°
2026-04-24 19:34 40.60128 -75.25533 25909 ft 422 kts 246°
2026-04-24 19:34 40.58608 -75.28847 26272 ft 425 kts 246°
2026-04-24 19:35 40.57079 -75.32190 26628 ft 427 kts 246°
2026-04-24 19:35 40.55541 -75.35552 26981 ft 430 kts 246°
2026-04-24 19:35 40.53992 -75.38930 27311 ft 433 kts 246°
2026-04-24 19:35 40.52431 -75.42330 27656 ft 435 kts 246°
2026-04-24 19:36 40.50861 -75.45746 27980 ft 438 kts 246°
2026-04-24 19:36 40.49286 -75.49167 28414 ft 437 kts 246°
2026-04-24 19:36 40.47714 -75.52577 28910 ft 436 kts 246°
2026-04-24 19:36 40.46149 -75.55973 29387 ft 435 kts 246°
2026-04-24 19:37 40.44583 -75.59371 29814 ft 435 kts 246°
2026-04-24 19:37 40.43012 -75.62774 30149 ft 436 kts 246°
2026-04-24 19:37 40.41441 -75.66173 30527 ft 435 kts 246°
2026-04-24 19:37 40.39877 -75.69556 30977 ft 432 kts 246°
2026-04-24 19:38 40.38343 -75.72875 31422 ft 430 kts 247°
2026-04-24 19:38 40.36797 -75.76221 31805 ft 429 kts 247°
2026-04-24 19:38 40.35226 -75.79622 31824 ft 433 kts 246°
2026-04-24 19:39 40.32087 -75.86379 31861 ft 434 kts 246°
2026-04-24 19:39 40.28939 -75.93099 31873 ft 432 kts 246°
2026-04-24 19:40 40.25805 -75.99782 31851 ft 429 kts 246°
2026-04-24 19:40 40.22682 -76.06436 31848 ft 428 kts 246°
2026-04-24 19:41 40.19566 -76.13063 31853 ft 427 kts 246°
2026-04-24 19:41 40.16452 -76.19673 31844 ft 427 kts 246°
2026-04-24 19:42 40.13325 -76.26297 31855 ft 429 kts 246°
2026-04-24 19:42 40.10200 -76.32963 31861 ft 431 kts 246°
2026-04-24 19:43 40.07114 -76.39694 31853 ft 433 kts 246°
2026-04-24 19:43 40.04004 -76.46446 31846 ft 435 kts 246°
2026-04-24 19:44 40.00873 -76.53210 31841 ft 436 kts 245°
2026-04-24 19:44 39.97730 -76.59994 31857 ft 437 kts 245°
2026-04-24 19:45 39.94583 -76.66778 31866 ft 438 kts 245°
2026-04-24 19:45 39.91428 -76.73554 31867 ft 437 kts 245°
2026-04-24 19:46 39.88264 -76.80318 31865 ft 437 kts 245°
2026-04-24 19:46 39.85103 -76.87063 31845 ft 436 kts 245°
2026-04-24 19:47 39.81945 -76.93788 31867 ft 435 kts 245°
2026-04-24 19:47 39.78787 -77.00506 31876 ft 435 kts 245°
2026-04-24 19:48 39.75629 -77.07208 31877 ft 435 kts 245°
2026-04-24 19:48 39.70889 -77.17242 31881 ft 434 kts 244°
2026-04-24 19:49 39.64563 -77.30579 31876 ft 433 kts 244°
2026-04-24 19:50 39.58234 -77.43877 31852 ft 433 kts 244°
2026-04-24 19:51 39.53498 -77.53797 31849 ft 434 kts 244°
2026-04-24 19:52 39.48725 -77.63760 31848 ft 434 kts 244°
2026-04-24 19:52 39.45514 -77.70446 31841 ft 435 kts 243°
2026-04-24 19:53 39.42337 -77.77049 31832 ft 435 kts 243°
2026-04-24 19:54 39.37623 -77.87059 31810 ft 432 kts 247°
2026-04-24 19:54 39.34880 -77.93941 31814 ft 430 kts 249°
2026-04-24 19:55 39.33086 -77.98556 31810 ft 430 kts 248°
2026-04-24 19:55 39.29478 -78.07725 31822 ft 430 kts 248°
2026-04-24 19:56 39.26742 -78.14592 31822 ft 430 kts 248°
2026-04-24 19:56 39.23995 -78.21452 31830 ft 430 kts 248°
2026-04-24 19:57 39.21243 -78.28310 31803 ft 431 kts 247°
2026-04-24 19:57 39.18488 -78.35162 31813 ft 430 kts 247°
2026-04-24 19:58 39.15727 -78.42012 31809 ft 431 kts 247°
2026-04-24 19:58 39.12959 -78.48867 31817 ft 432 kts 247°
2026-04-24 19:59 39.10634 -78.54612 31814 ft 432 kts 247°
2026-04-24 19:59 39.07875 -78.61416 31814 ft 432 kts 247°
2026-04-24 20:00 39.05094 -78.68259 31814 ft 431 kts 247°
2026-04-24 20:00 39.02314 -78.75086 31823 ft 431 kts 246°
2026-04-24 20:01 38.99533 -78.81904 31828 ft 430 kts 246°
2026-04-24 20:01 38.96745 -78.88718 31842 ft 431 kts 246°
2026-04-24 20:02 38.93951 -78.95529 31842 ft 431 kts 246°
2026-04-24 20:02 38.91153 -79.02344 31854 ft 431 kts 246°
2026-04-24 20:03 38.88352 -79.09149 31838 ft 431 kts 245°
2026-04-24 20:03 38.85545 -79.15957 31879 ft 432 kts 245°
2026-04-24 20:04 38.83295 -79.23027 31876 ft 426 kts 259°
2026-04-24 20:04 38.82000 -79.30439 31884 ft 426 kts 260°
2026-04-24 20:05 38.80719 -79.37858 31883 ft 427 kts 260°
2026-04-24 20:05 38.79399 -79.45285 31883 ft 427 kts 260°
2026-04-24 20:06 38.78102 -79.52719 31884 ft 428 kts 259°
2026-04-24 20:06 38.76720 -79.60135 31899 ft 428 kts 259°
2026-04-24 20:07 38.75570 -79.66359 31905 ft 428 kts 259°
2026-04-24 20:07 38.73983 -79.74997 31906 ft 428 kts 259°
2026-04-24 20:08 38.72620 -79.82418 31900 ft 428 kts 259°
2026-04-24 20:08 38.71253 -79.89826 31915 ft 427 kts 259°
2026-04-24 20:09 38.69881 -79.97233 31918 ft 427 kts 259°
2026-04-24 20:09 38.68504 -80.04634 31915 ft 427 kts 259°
2026-04-24 20:10 38.67124 -80.12025 31917 ft 427 kts 259°
2026-04-24 20:10 38.65740 -80.19422 31898 ft 427 kts 259°
2026-04-24 20:11 38.64465 -80.26842 31911 ft 427 kts 258°
2026-04-24 20:11 38.62962 -80.34209 31895 ft 428 kts 259°
2026-04-24 20:12 38.61581 -80.41620 31913 ft 428 kts 258°
2026-04-24 20:12 38.60167 -80.49024 31865 ft 430 kts 257°
2026-04-24 20:13 38.58642 -80.56398 31869 ft 428 kts 259°
2026-04-24 20:13 38.57248 -80.63802 31873 ft 429 kts 258°
2026-04-24 20:14 38.55820 -80.71212 31881 ft 430 kts 257°
2026-04-24 20:14 38.54463 -80.78657 31875 ft 430 kts 259°
2026-04-24 20:15 38.52985 -80.86067 31873 ft 431 kts 257°
2026-04-24 20:15 38.51619 -80.93519 31861 ft 431 kts 258°
2026-04-24 20:16 38.50166 -81.00955 31870 ft 432 kts 257°
2026-04-24 20:16 38.48681 -81.08387 31878 ft 432 kts 257°
2026-04-24 20:17 38.47210 -81.15826 31877 ft 432 kts 258°
2026-04-24 20:17 38.45008 -81.26988 31878 ft 432 kts 258°
2026-04-24 20:18 38.43537 -81.34416 31870 ft 432 kts 258°
2026-04-24 20:18 38.42063 -81.41833 31879 ft 431 kts 257°
2026-04-24 20:19 38.40583 -81.49248 31879 ft 431 kts 257°
2026-04-24 20:19 38.39100 -81.56652 31892 ft 431 kts 257°
2026-04-24 20:20 38.37614 -81.64048 31887 ft 431 kts 257°
2026-04-24 20:20 38.36125 -81.71435 31885 ft 430 kts 257°
2026-04-24 20:21 38.34582 -81.78791 31882 ft 430 kts 255°
2026-04-24 20:21 38.32592 -81.85984 31884 ft 431 kts 252°
2026-04-24 20:22 38.30500 -81.93132 31878 ft 431 kts 252°
2026-04-24 20:22 38.28448 -82.00289 31873 ft 430 kts 252°
2026-04-24 20:23 38.26419 -82.07453 31870 ft 430 kts 252°
2026-04-24 20:23 38.24390 -82.14620 31866 ft 430 kts 252°
2026-04-24 20:24 38.22355 -82.21782 31868 ft 431 kts 252°
2026-04-24 20:24 38.20315 -82.28942 31862 ft 431 kts 252°
2026-04-24 20:25 38.18271 -82.36100 31865 ft 431 kts 252°
2026-04-24 20:25 38.16227 -82.43256 31855 ft 431 kts 253°
2026-04-24 20:26 38.14182 -82.50407 31865 ft 431 kts 252°
2026-04-24 20:26 38.12132 -82.57557 31871 ft 431 kts 252°
2026-04-24 20:27 38.10077 -82.64704 31866 ft 431 kts 252°
2026-04-24 20:27 38.08017 -82.71846 31866 ft 431 kts 252°
2026-04-24 20:28 38.05952 -82.78988 31854 ft 431 kts 253°
2026-04-24 20:28 38.03885 -82.86122 31871 ft 431 kts 253°
2026-04-24 20:29 38.01813 -82.93250 31869 ft 431 kts 253°
2026-04-24 20:29 37.99737 -83.00374 31869 ft 431 kts 253°
2026-04-24 20:30 37.97657 -83.07494 31880 ft 431 kts 253°
2026-04-24 20:30 37.95570 -83.14616 31879 ft 431 kts 253°
2026-04-24 20:31 37.93480 -83.21736 31878 ft 431 kts 253°
2026-04-24 20:31 37.91381 -83.28862 31882 ft 432 kts 253°
2026-04-24 20:32 37.89277 -83.35987 31888 ft 432 kts 253°
2026-04-24 20:32 37.87168 -83.43112 31886 ft 432 kts 253°
2026-04-24 20:33 37.85053 -83.50238 31874 ft 433 kts 253°
2026-04-24 20:33 37.82931 -83.57368 31868 ft 433 kts 253°
2026-04-24 20:34 37.80806 -83.64491 31876 ft 433 kts 252°
2026-04-24 20:34 37.78677 -83.71608 31871 ft 433 kts 252°
2026-04-24 20:35 37.76543 -83.78724 31870 ft 433 kts 253°
2026-04-24 20:35 37.74407 -83.85832 31874 ft 433 kts 252°
2026-04-24 20:36 37.72266 -83.92939 31885 ft 433 kts 252°
2026-04-24 20:36 37.70183 -84.00052 31889 ft 432 kts 251°
2026-04-24 20:37 37.67978 -84.07111 31898 ft 432 kts 252°
2026-04-24 20:37 37.65579 -84.14068 31895 ft 436 kts 241°
2026-04-24 20:38 37.61647 -84.19917 31913 ft 442 kts 224°
2026-04-24 20:38 37.56982 -84.24956 31906 ft 442 kts 223°
2026-04-24 20:39 37.53087 -84.29129 31909 ft 442 kts 223°
2026-04-24 20:39 37.47632 -84.35010 31904 ft 441 kts 221°
2026-04-24 20:40 37.43812 -84.39236 31879 ft 440 kts 224°
2026-04-24 20:40 37.39191 -84.44280 31893 ft 439 kts 223°
2026-04-24 20:41 37.34562 -84.49288 31887 ft 439 kts 224°
2026-04-24 20:41 37.30002 -84.54376 31902 ft 439 kts 223°
2026-04-24 20:42 37.25340 -84.59330 31894 ft 439 kts 223°
2026-04-24 20:42 37.20694 -84.64306 31876 ft 437 kts 223°
2026-04-24 20:43 37.18402 -84.66776 31553 ft 432 kts 223°
2026-04-24 20:43 37.16167 -84.69266 30978 ft 430 kts 223°
2026-04-24 20:43 37.13879 -84.71727 30064 ft 438 kts 221°
2026-04-24 20:43 37.11539 -84.74232 28948 ft 447 kts 222°
2026-04-24 20:44 37.09196 -84.76774 28008 ft 451 kts 223°
2026-04-24 20:44 37.06812 -84.79305 27304 ft 448 kts 222°
2026-04-24 20:44 37.04440 -84.81830 26549 ft 447 kts 223°
2026-04-24 20:44 37.02208 -84.84521 25791 ft 444 kts 234°
2026-04-24 20:45 37.00561 -84.87747 25188 ft 437 kts 242°
2026-04-24 20:45 36.98994 -84.90965 24719 ft 430 kts 239°
2026-04-24 20:45 36.97409 -84.94105 24195 ft 425 kts 240°
2026-04-24 20:45 36.95901 -84.97267 23589 ft 421 kts 241°
2026-04-24 20:46 36.94443 -85.00398 23218 ft 408 kts 241°
2026-04-24 20:46 36.93031 -85.03409 22943 ft 396 kts 241°
2026-04-24 20:46 36.91667 -85.06274 22743 ft 384 kts 241°
2026-04-24 20:46 36.90307 -85.09099 22452 ft 375 kts 241°
2026-04-24 20:47 36.88968 -85.11854 22186 ft 368 kts 241°
2026-04-24 20:47 36.87631 -85.14595 21985 ft 371 kts 241°
2026-04-24 20:47 36.86256 -85.17407 21950 ft 377 kts 240°
2026-04-24 20:47 36.84898 -85.20180 21921 ft 381 kts 240°
2026-04-24 20:48 36.83497 -85.23035 21922 ft 380 kts 240°
2026-04-24 20:48 36.82115 -85.25848 21905 ft 380 kts 240°
2026-04-24 20:48 36.80737 -85.28651 21893 ft 379 kts 241°
2026-04-24 20:48 36.79376 -85.31417 21892 ft 379 kts 240°
2026-04-24 20:49 36.77982 -85.34252 21900 ft 378 kts 240°
2026-04-24 20:49 36.76603 -85.37050 21899 ft 378 kts 240°
2026-04-24 20:49 36.75226 -85.39843 21907 ft 378 kts 240°
2026-04-24 20:49 36.73858 -85.42655 21454 ft 383 kts 242°
2026-04-24 20:50 36.72540 -85.45522 21003 ft 379 kts 243°
2026-04-24 20:50 36.71230 -85.48360 20498 ft 376 kts 242°
2026-04-24 20:50 36.69925 -85.51165 20018 ft 372 kts 242°
2026-04-24 20:50 36.68611 -85.53920 19546 ft 369 kts 242°
2026-04-24 20:51 36.67309 -85.56655 19082 ft 365 kts 242°
2026-04-24 20:51 36.66023 -85.59366 18603 ft 362 kts 242°
2026-04-24 20:51 36.64749 -85.62058 18123 ft 360 kts 242°
2026-04-24 20:51 36.63485 -85.64734 17604 ft 357 kts 242°
2026-04-24 20:52 36.62235 -85.67378 17208 ft 351 kts 242°
2026-04-24 20:52 36.61002 -85.69986 16744 ft 348 kts 242°
2026-04-24 20:52 36.59782 -85.72564 16298 ft 345 kts 242°
2026-04-24 20:52 36.58569 -85.75126 15857 ft 341 kts 241°
2026-04-24 20:53 36.57368 -85.77658 15421 ft 338 kts 241°
2026-04-24 20:53 36.56177 -85.80167 15002 ft 335 kts 241°
2026-04-24 20:53 36.54995 -85.82654 14575 ft 333 kts 241°
2026-04-24 20:53 36.53821 -85.85125 14153 ft 331 kts 241°
2026-04-24 20:54 36.52652 -85.87584 13733 ft 329 kts 240°
2026-04-24 20:54 36.51490 -85.90028 13246 ft 328 kts 240°
2026-04-24 20:54 36.50336 -85.92454 12809 ft 325 kts 240°
2026-04-24 20:54 36.49208 -85.94874 12369 ft 322 kts 240°
2026-04-24 20:55 36.48066 -85.97255 11967 ft 319 kts 240°
2026-04-24 20:55 36.46948 -85.99623 11524 ft 317 kts 239°
2026-04-24 20:55 36.45789 -86.01943 11105 ft 315 kts 238°
2026-04-24 20:55 36.44678 -86.04276 10676 ft 313 kts 240°
2026-04-24 20:56 36.43571 -86.06593 10249 ft 312 kts 238°
2026-04-24 20:56 36.42470 -86.08877 10055 ft 302 kts 239°
2026-04-24 20:56 36.41425 -86.11074 9999 ft 288 kts 239°
2026-04-24 20:56 36.40430 -86.13159 10010 ft 274 kts 239°
2026-04-24 20:57 36.39561 -86.15208 10001 ft 265 kts 237°
2026-04-24 20:57 36.38344 -86.16895 9874 ft 262 kts 226°
2026-04-24 20:57 36.37263 -86.18685 9582 ft 260 kts 245°
2026-04-24 20:57 36.36700 -86.20812 9232 ft 259 kts 254°
2026-04-24 20:58 36.36233 -86.22978 8831 ft 261 kts 252°
2026-04-24 20:58 36.35749 -86.25143 8570 ft 258 kts 255°
2026-04-24 20:58 36.35336 -86.27293 8255 ft 257 kts 255°
2026-04-24 20:58 36.34929 -86.29435 7979 ft 254 kts 255°
2026-04-24 20:59 36.34524 -86.31578 7620 ft 256 kts 255°
2026-04-24 20:59 36.34125 -86.33720 7342 ft 254 kts 256°
2026-04-24 20:59 36.33728 -86.35847 7076 ft 252 kts 255°
2026-04-24 20:59 36.33343 -86.37953 6774 ft 252 kts 256°
2026-04-24 21:00 36.32961 -86.40067 6532 ft 248 kts 256°
2026-04-24 21:00 36.32629 -86.42089 6430 ft 231 kts 255°
2026-04-24 21:00 36.32242 -86.44000 5997 ft 233 kts 255°
2026-04-24 21:00 36.31865 -86.46021 5393 ft 245 kts 255°
2026-04-24 21:01 36.31484 -86.48106 4992 ft 249 kts 256°
2026-04-24 21:01 36.31110 -86.50170 4857 ft 240 kts 255°
2026-04-24 21:01 36.30750 -86.52148 4759 ft 230 kts 254°
2026-04-24 21:01 36.30442 -86.54053 4678 ft 220 kts 257°
2026-04-24 21:02 36.30142 -86.55869 4584 ft 210 kts 256°
2026-04-24 21:02 36.29821 -86.57603 4336 ft 206 kts 249°
2026-04-24 21:02 36.29019 -86.59033 3937 ft 204 kts 219°
2026-04-24 21:02 36.27706 -86.59718 3531 ft 208 kts 196°
2026-04-24 21:03 36.26305 -86.60103 3227 ft 206 kts 197°
2026-04-24 21:03 36.24903 -86.60484 3092 ft 208 kts 197°
2026-04-24 21:03 36.23519 -86.60935 2914 ft 203 kts 205°
2026-04-24 21:03 36.22284 -86.61720 2491 ft 198 kts 218°
2026-04-24 21:04 36.21217 -86.62697 2235 ft 182 kts 214°
2026-04-24 21:04 36.20081 -86.63277 1862 ft 175 kts 199°
2026-04-24 21:04 36.18945 -86.63665 1623 ft 158 kts 202°
2026-04-24 21:04 36.17974 -86.64123 1565 ft 153 kts 202°
2026-04-24 21:05 36.16925 -86.64509 1449 ft 160 kts 198°
2026-04-24 21:05 36.15869 -86.64917 1207 ft 155 kts 199°
2026-04-24 21:05 36.14873 -86.65319 908 ft 146 kts 198°
2026-04-24 21:05 36.13941 -86.65688 659 ft 136 kts 199°
2026-04-24 21:06 36.13059 -86.66053 562 ft 128 kts 197°
2026-04-24 21:06 36.12320 -86.66346 569 ft 91 kts 198°
2026-04-24 21:06 36.11940 -86.66498 580 ft 29 kts 199°
2026-04-24 21:06 36.11839 -86.66571 583 ft 13 kts 261°
2026-04-24 21:07 36.11850 -86.66631 583 ft 2 kts 283°
2026-04-24 21:07 36.11851 -86.66637 583 ft 0 kts 282°
2026-04-24 21:07 36.11858 -86.66651 583 ft 5 kts 309°
2026-04-24 21:07 36.11914 -86.66650 582 ft 12 kts 16°
2026-04-24 21:08 36.12006 -86.66615 580 ft 15 kts 17°
2026-04-24 21:08 36.12107 -86.66575 575 ft 17 kts 18°
2026-04-24 21:08 36.12212 -86.66532 573 ft 15 kts 18°
2026-04-24 21:08 36.12292 -86.66585 577 ft 15 kts 288°
2026-04-24 21:09 36.12322 -86.66703 578 ft 14 kts 287°
2026-04-24 21:09 36.12365 -86.66845 576 ft 22 kts 304°
2026-04-24 21:09 36.12459 -86.66951 582 ft 13 kts 349°
2026-04-24 21:09 36.12549 -86.66908 572 ft 15 kts 28°
2026-04-24 21:10 36.12619 -86.66876 572 ft 9 kts 349°
2026-04-24 21:10 36.12672 -86.66863 570 ft 11 kts 44°
2026-04-24 21:10 36.12717 -86.66828 569 ft 2 kts 312°
2026-04-24 21:10 36.12688 -86.66865 566 ft 10 kts 215°
2026-04-24 21:11 36.12691 -86.66960 569 ft 15 kts 310°
2026-04-24 21:11 36.12765 -86.67064 572 ft 16 kts 311°
2026-04-24 21:11 36.12832 -86.67169 572 ft 16 kts 307°
2026-04-24 21:11 36.12908 -86.67260 569 ft 15 kts 320°
2026-04-24 21:12 36.12990 -86.67345 566 ft 15 kts 326°
2026-04-24 21:12 36.13057 -86.67375 570 ft 15 kts 351°
2026-04-24 21:12 36.13190 -86.67360 566 ft 14 kts 29°
2026-04-24 21:12 36.13227 -86.67288 566 ft 6 kts 61°
2026-04-24 21:13 36.13241 -86.67258 568 ft 2 kts 61°
2026-04-24 21:13 36.13245 -86.67248 570 ft 0 kts 61°